RADUGA 17 [-]

Last updated on July 6, 2021, 3:35 p.m. UTC

1 16250U 85107A   21186.88309969 -.00000319  00000-0  00000-0 0  9999
2 16250  12.6251 332.1555 0013799 162.2884 212.4496  1.00136887133578
UTC
Height (km)
Latitude
Longitude
Inclination
Orbital Period
UTC large
Height (km)
Speed (km/s)
/
Latitude / Longitude
Inclination (degrees)
Orbital Period (minutes)
Azimuth
Elevation
Range (km)
Doppler Factor
iOS Compass Heading
iOS Angle